Regional Weather Roundup
Issued by NWS

Home | Current Version | Previous Version | Text Only | Print | Product List | Glossary Off
Versions: 1 2 3 4 5 6 7 8 9 10 11 12 13 14 15 16 17 18 19 20 21 22 23 24 25 26 27 28 29 30 31 32 33 34 35 36 37 38 39 40 41 42 43 44 45 46 47 48 49 50

000
ASUS43 KLMK 261710
RWRKY
KENTUCKY REGIONAL WEATHER ROUNDUP
NATIONAL WEATHER SERVICE LOUISVILLE KY
100 PM EDT MON JUN 26 2017

NOTE "FAIR" INDICATES FEW OR NO CLOUDS BELOW 12,000 FEET
WITH NO SIGNIFICANT WEATHER AND/OR OBSTRUCTIONS TO VISIBILITY.

KYZ001>023-026-027-061>063-070>075-261800-
WESTERN AND SOUTH CENTRAL KENTUCKY

CITY           SKY/WX    TMP DP  RH WIND       PRES   REMARKS
PADUCAH        CLOUDY    75  45  34 CALM      30.21S
HENDERSON      SUNNY     76  49  38 W7        30.20F
OWENSBORO      PTSUNNY   75  48  38 NW12      30.20F
HOPKINSVILLE   MOSUNNY   75  50  40 CALM      30.20F
BOWLING GREEN  SUNNY     77  51  40 W7        30.19F
GLASGOW        SUNNY     75  49  38 W6        30.19F
$$

KYZ024-025-028>034-038-045-046-053-261800-
NORTH CENTRAL KENTUCKY

CITY           SKY/WX    TMP DP  RH WIND       PRES   REMARKS
LOUISVILLE/SDF MOSUNNY   76  46  34 VRB7G17   30.18F
LOUISVILLE/LOU MOSUNNY   76  45  33 NW10G18   30.18F
FORT KNOX      SUNNY     73  48  40 W3        30.17F
$$

KYZ035>037-039>044-047>052-055>060-089>105-261800-
NORTHEAST KENTUCKY

CITY           SKY/WX    TMP DP  RH WIND       PRES   REMARKS
LEXINGTON      SUNNY     74  46  36 N12       30.18F
COVINGTON      PTSUNNY   72  49  44 NW14G21   30.16F
FRANKFORT      MOSUNNY   73  47  39 W7        30.17F
$$

KYZ054-064>069-076>088-106>120-261800-
SOUTHEAST KENTUCKY

CITY           SKY/WX    TMP DP  RH WIND       PRES   REMARKS
JACKSON        MOSUNNY   72  52  49 VRB6      30.18F
LONDON         SUNNY     74  50  42 W7        30.19F
SOMERSET       SUNNY     73  46  38 W7        30.20F
MIDDLESBORO    CLOUDY    77  51  40 W8        30.18F
MONTICELLO     SUNNY     74  52  46 VRB7      30.21F
$$





USA.gov is the U.S. government's official web portal to all federal, state and local government web resources and services.